Weather History for Clemson, SC

Change the Weather History Date:

Monday, May 27, 2013

  Actual Average Record
Temperature  
Mean Temperature 71 °F -  
Max Temperature 84 °F 81 °F 95 °F (1962)
Min Temperature 60 °F 59 °F 37 °F (1961)
Cooling Degree Days 6    
Growing Degree Days 21 (Base 50)    
Moisture  
Dew Point 56 °F    
Average Humidity 59    
Maximum Humidity 83    
Minimum Humidity 38    
Precipitation  
Precipitation 0.00 in - - ()
Sea Level Pressure  
Sea Level Pressure 30.20 in    
Wind  
Wind Speed 2 mph (NE)    
Max Wind Speed 6 mph    
Max Gust Speed -    
Visibility 10 miles    
Events      
Averages and records for this station are not official NWS values.
T = Trace of Precipitation, MM = Missing Value Source: NWS Daily Summary

Daily Weather History Graph

Daily Weather History Graph

Search for Another Location

Airport:

Trip Planner

Search our weather history database for the weather conditions in past years. The results will help you decide how hot, cold, wet, or windy it might be!

Date:

Astronomy

May. 27, 2013 Rise Set
Actual Time 6:21 AM EDT 8:36 PM EDT
Civil Twilight 5:52 AM EDT 9:05 PM EDT
Nautical Twilight 5:17 AM EDT 9:40 PM EDT
Astronomical Twilight 4:39 AM EDT 10:18 PM EDT
Moon 11:17 PM EDT (5/27) 8:55 AM EDT (5/27)
Length of Visible Light 15h 12m
Length of Day
14h 15m
Waning Gibbous, 91% of the Moon is Illuminated
May 27
Waning Gibbous
May 31
Last Quarter
Jun 8
New
Jun 16
First Quarter
Jun 23
Full

Hourly Weather History & Observations

Time (EDT) Temp. Heat Index Dew Point Humidity Pressure Visibility Wind Dir Wind Speed Gust Speed Precip Events Conditions
12:54 AM 64.0 °F - 52.0 °F 65% 30.21 in 10.0 mi Calm Calm - N/A   Clear
1:54 AM 62.1 °F - 55.0 °F 78% 30.21 in 10.0 mi NNW 3.5 mph - N/A   Clear
2:54 AM 62.1 °F - 55.9 °F 80% 30.20 in 10.0 mi Calm Calm - N/A   Clear
3:54 AM 61.0 °F - 55.9 °F 83% 30.20 in 10.0 mi North 3.5 mph - N/A   Clear
4:54 AM 60.1 °F - 55.0 °F 83% 30.22 in 10.0 mi Calm Calm - N/A   Clear
5:54 AM 60.1 °F - 55.0 °F 83% 30.22 in 10.0 mi Calm Calm - N/A   Clear
6:54 AM 60.1 °F - 55.0 °F 83% 30.25 in 10.0 mi North 3.5 mph - N/A   Clear
7:54 AM 63.0 °F - 57.0 °F 81% 30.25 in 10.0 mi Calm Calm - N/A   Clear
8:54 AM 66.9 °F - 54.0 °F 63% 30.26 in 10.0 mi NNE 5.8 mph - N/A   Clear
9:54 AM 72.0 °F - 55.0 °F 55% 30.25 in 10.0 mi NE 3.5 mph - N/A   Clear
10:54 AM 75.0 °F - 54.0 °F 48% 30.25 in 10.0 mi Calm Calm - N/A   Clear
11:54 AM 78.1 °F - 55.9 °F 46% 30.23 in 10.0 mi East 3.5 mph - N/A   Clear
12:54 PM 80.1 °F 80.1 °F 55.0 °F 42% 30.22 in 10.0 mi Calm Calm - N/A   Clear
1:54 PM 81.0 °F 80.5 °F 54.0 °F 39% 30.20 in 10.0 mi Calm Calm - N/A   Clear
2:54 PM 82.0 °F 81.3 °F 54.0 °F 38% 30.19 in 10.0 mi Variable 3.5 mph - N/A   Clear
3:54 PM 82.0 °F 81.6 °F 55.9 °F 41% 30.16 in 10.0 mi SE 5.8 mph - N/A   Clear
4:54 PM 82.0 °F 81.7 °F 57.0 °F 42% 30.15 in 10.0 mi South 5.8 mph - N/A   Clear
5:54 PM 82.9 °F 82.1 °F 55.9 °F 39% 30.15 in 10.0 mi South 3.5 mph - N/A   Clear
6:54 PM 82.0 °F 81.7 °F 57.0 °F 42% 30.15 in 10.0 mi Calm Calm - N/A   Clear
7:54 PM 79.0 °F - 59.0 °F 50% 30.15 in 10.0 mi Calm Calm - N/A   Clear
8:54 PM 78.1 °F - 59.0 °F 52% 30.13 in 10.0 mi Calm Calm - N/A   Clear
9:54 PM 75.0 °F - 57.9 °F 55% 30.14 in 10.0 mi Calm Calm - N/A   Clear
10:54 PM 72.0 °F - 60.1 °F 66% 30.16 in 10.0 mi Calm Calm - N/A   Clear
11:54 PM 71.1 °F - 61.0 °F 70% 30.17 in 10.0 mi Calm Calm - N/A   Clear